PulseSat

PulseSat

COSMOS 2436 (723)

Last updated on March 21, 2019, 3:13 a.m. UTC

1 32395U 07065C   19078.40077579  .00000045  00000-0  10000-3 0  9997
2 32395  64.7744 282.1234 0017122   5.9010  12.4670  2.13104370 87338
UTC
Height (km)
Latitude
Longitude
Inclination
Orbital Period

Next 30 passes for location: Hong Kong

Rise time Rise Azimuth (degrees) Set time Set Azimuth (degrees) Duration Max altitude (degrees)

No matching passes for this satellites

PulseSat

PulseSat is the new satellites software and hardware trackering solution by Pulsely.
Satellite Two Line Element Set source: US Air Force Space Command

Download PulseSat for iOS
© 2017 Pulsely Limited